Time,TemperatureF,DewpointF,PressureIn,WindDirection,WindDirectionDegrees,WindSpeedMPH,WindSpeedGustMPH,Humidity,HourlyPrecipIn,Conditions,Clouds,dailyrainin,SoftwareType,DateUTC
2013-07-24 00:00:00,81.0,71.0,29.80,South,180,0.0,6.0,72,0.00,,,0.00,Weather View 32 v70,2013-07-24 05:00:00,
2013-07-24 00:10:00,80.8,70.5,29.80,South,181,0.0,6.0,71,0.00,,,0.00,Weather View 32 v70,2013-07-24 05:10:00,
2013-07-24 00:15:00,80.8,70.5,29.80,South,181,0.0,6.0,71,0.00,,,0.00,Weather View 32 v70,2013-07-24 05:15:00,
2013-07-24 00:25:00,80.4,70.1,29.80,South,181,0.0,6.0,71,0.00,,,0.00,Weather View 32 v70,2013-07-24 05:25:00,
2013-07-24 00:30:00,80.2,70.4,29.80,South,181,0.0,6.0,72,0.00,,,0.00,Weather View 32 v70,2013-07-24 05:30:00,
2013-07-24 00:35:00,80.2,70.4,29.80,South,181,0.0,5.0,72,0.00,,,0.00,Weather View 32 v70,2013-07-24 05:35:00,
2013-07-24 00:45:00,80.1,70.2,29.80,South,175,3.0,5.0,72,0.00,,,0.00,Weather View 32 v70,2013-07-24 05:45:00,
2013-07-24 00:50:00,79.9,70.0,29.80,South,187,3.0,5.0,72,0.00,,,0.00,Weather View 32 v70,2013-07-24 05:50:00,
2013-07-24 00:55:00,79.9,70.0,29.80,SSE,160,0.0,4.0,72,0.00,,,0.00,Weather View 32 v70,2013-07-24 05:55:00,
2013-07-24 01:05:00,79.7,69.8,29.80,SSW,193,0.0,4.0,72,0.00,,,0.00,Weather View 32 v70,2013-07-24 06:05:00,
2013-07-24 01:15:00,79.5,70.1,29.80,SSW,204,0.0,4.0,73,0.00,,,0.00,Weather View 32 v70,2013-07-24 06:15:00,
2013-07-24 01:25:00,79.5,70.5,29.80,SW,219,0.0,4.0,74,0.00,,,0.00,Weather View 32 v70,2013-07-24 06:25:00,
2013-07-24 01:30:00,79.3,70.3,29.80,SW,217,0.0,4.0,74,0.00,,,0.00,Weather View 32 v70,2013-07-24 06:30:00,
2013-07-24 01:35:00,79.2,70.1,29.80,SW,217,0.0,4.0,74,0.00,,,0.00,Weather View 32 v70,2013-07-24 06:35:00,
2013-07-24 01:45:00,79.0,70.3,29.80,SSW,195,0.0,4.0,75,0.00,,,0.00,Weather View 32 v70,2013-07-24 06:45:00,
2013-07-24 01:50:00,79.0,70.7,29.80,SSW,192,0.0,4.0,76,0.00,,,0.00,Weather View 32 v70,2013-07-24 06:50:00,
2013-07-24 01:55:00,79.0,70.7,29.80,SSW,192,0.0,4.0,76,0.00,,,0.00,Weather View 32 v70,2013-07-24 06:55:00,
2013-07-24 02:00:00,78.8,70.6,29.80,SSW,194,0.0,4.0,76,0.00,,,0.00,Weather View 32 v70,2013-07-24 07:00:00,
2013-07-24 02:10:00,78.6,70.8,29.77,South,175,0.0,4.0,77,0.00,,,0.00,Weather View 32 v70,2013-07-24 07:10:00,
2013-07-24 02:15:00,78.6,71.2,29.77,South,175,0.0,4.0,78,0.00,,,0.00,Weather View 32 v70,2013-07-24 07:15:00,
2013-07-24 02:20:00,78.6,71.2,29.77,SSW,208,0.0,4.0,78,0.00,,,0.00,Weather View 32 v70,2013-07-24 07:20:00,
2013-07-24 02:30:00,78.4,71.0,29.77,SSW,207,0.0,4.0,78,0.00,,,0.00,Weather View 32 v70,2013-07-24 07:30:00,
2013-07-24 02:40:00,78.4,71.4,29.77,SSW,213,0.0,4.0,79,0.00,,,0.00,Weather View 32 v70,2013-07-24 07:40:00,
2013-07-24 02:50:00,78.4,71.4,29.77,SSW,197,0.0,4.0,79,0.00,,,0.00,Weather View 32 v70,2013-07-24 07:50:00,
2013-07-24 03:00:00,78.3,71.2,29.77,SSW,197,0.0,4.0,79,0.00,,,0.00,Weather View 32 v70,2013-07-24 08:00:00,
2013-07-24 03:05:00,78.3,71.2,29.77,SSW,197,0.0,4.0,79,0.00,,,0.00,Weather View 32 v70,2013-07-24 08:05:00,
2013-07-24 03:10:00,78.3,71.2,29.77,SSW,197,0.0,3.0,79,0.00,,,0.00,Weather View 32 v70,2013-07-24 08:10:00,
2013-07-24 03:15:00,78.1,71.4,29.77,WSW,242,0.0,3.0,80,0.00,,,0.00,Weather View 32 v70,2013-07-24 08:15:00,
2013-07-24 03:25:00,78.1,71.4,29.77,SSW,213,0.0,4.0,80,0.00,,,0.00,Weather View 32 v70,2013-07-24 08:25:00,
2013-07-24 03:30:00,77.9,71.2,29.77,SSW,213,0.0,4.0,80,0.00,,,0.00,Weather View 32 v70,2013-07-24 08:30:00,
2013-07-24 03:40:00,77.9,71.2,29.80,SSW,213,0.0,4.0,80,0.00,,,0.00,Weather View 32 v70,2013-07-24 08:40:00,
2013-07-24 03:45:00,77.9,71.6,29.80,SW,232,0.0,4.0,81,0.00,,,0.00,Weather View 32 v70,2013-07-24 08:45:00,
2013-07-24 03:55:00,77.9,71.6,29.80,SW,214,0.0,5.0,81,0.00,,,0.00,Weather View 32 v70,2013-07-24 08:55:00,
2013-07-24 04:00:00,77.7,71.4,29.80,West,272,0.0,5.0,81,0.00,,,0.00,Weather View 32 v70,2013-07-24 09:00:00,
2013-07-24 04:05:00,77.7,71.4,29.80,SSW,209,0.0,5.0,81,0.00,,,0.00,Weather View 32 v70,2013-07-24 09:05:00,
2013-07-24 04:15:00,77.7,71.4,29.80,SSW,194,4.0,5.0,81,0.00,,,0.00,Weather View 32 v70,2013-07-24 09:15:00,
2013-07-24 04:20:00,77.7,71.4,29.80,SSW,206,0.0,5.0,81,0.00,,,0.00,Weather View 32 v70,2013-07-24 09:20:00,
2013-07-24 04:30:00,77.7,71.4,29.80,SW,221,0.0,5.0,81,0.00,,,0.00,Weather View 32 v70,2013-07-24 09:30:00,
2013-07-24 04:35:00,77.7,71.4,29.80,SW,214,0.0,5.0,81,0.00,,,0.00,Weather View 32 v70,2013-07-24 09:35:00,
2013-07-24 04:45:00,77.5,70.9,29.80,SSW,194,0.0,5.0,80,0.00,,,0.00,Weather View 32 v70,2013-07-24 09:45:00,
2013-07-24 04:50:00,77.5,71.2,29.80,SSW,193,0.0,5.0,81,0.00,,,0.00,Weather View 32 v70,2013-07-24 09:50:00,
2013-07-24 05:00:00,77.5,71.2,29.80,SSW,208,0.0,5.0,81,0.00,,,0.00,Weather View 32 v70,2013-07-24 10:00:00,
2013-07-24 05:05:00,77.5,71.2,29.80,SSW,200,0.0,5.0,81,0.00,,,0.00,Weather View 32 v70,2013-07-24 10:05:00,
2013-07-24 05:16:00,77.4,71.0,29.80,South,186,0.0,5.0,81,0.00,,,0.00,Weather View 32 v70,2013-07-24 10:16:00,
2013-07-24 05:25:00,77.4,71.0,29.80,SSW,194,0.0,5.0,81,0.00,,,0.00,Weather View 32 v70,2013-07-24 10:25:00,
2013-07-24 05:35:00,77.4,71.0,29.80,SSW,195,0.0,5.0,81,0.00,,,0.00,Weather View 32 v70,2013-07-24 10:35:00,
2013-07-24 05:40:00,77.4,71.0,29.83,South,179,0.0,5.0,81,0.00,,,0.00,Weather View 32 v70,2013-07-24 10:40:00,
2013-07-24 05:45:00,77.2,71.2,29.83,South,171,0.0,5.0,82,0.00,,,0.00,Weather View 32 v70,2013-07-24 10:45:00,
2013-07-24 05:55:00,77.2,71.2,29.83,South,171,0.0,4.0,82,0.00,,,0.00,Weather View 32 v70,2013-07-24 10:55:00,
2013-07-24 06:05:00,77.2,71.2,29.83,South,172,0.0,4.0,82,0.00,,,0.00,Weather View 32 v70,2013-07-24 11:05:00,
2013-07-24 06:10:00,77.2,71.2,29.83,South,172,0.0,4.0,82,0.00,,,0.00,Weather View 32 v70,2013-07-24 11:10:00,
2013-07-24 06:15:00,77.2,71.2,29.83,South,172,0.0,4.0,82,0.00,,,0.00,Weather View 32 v70,2013-07-24 11:15:00,
2013-07-24 06:21:00,77.0,71.1,29.83,South,172,0.0,4.0,82,0.00,,,0.00,Weather View 32 v70,2013-07-24 11:21:00,
2013-07-24 06:30:00,77.0,71.1,29.83,South,172,0.0,4.0,82,0.00,,,0.00,Weather View 32 v70,2013-07-24 11:30:00,
2013-07-24 06:40:00,77.0,71.4,29.80,SSE,167,0.0,4.0,83,0.00,,,0.00,Weather View 32 v70,2013-07-24 11:40:00,
2013-07-24 06:45:00,77.0,71.4,29.80,South,177,0.0,3.0,83,0.00,,,0.00,Weather View 32 v70,2013-07-24 11:45:00,
2013-07-24 06:55:00,77.2,71.6,29.80,SSW,208,0.0,3.0,83,0.00,,,0.00,Weather View 32 v70,2013-07-24 11:55:00,
2013-07-24 07:00:00,77.2,71.6,29.80,SSW,208,0.0,3.0,83,0.00,,,0.00,Weather View 32 v70,2013-07-24 12:00:00,
2013-07-24 07:05:00,77.2,71.6,29.80,SSW,208,0.0,3.0,83,0.00,,,0.00,Weather View 32 v70,2013-07-24 12:05:00,
2013-07-24 07:15:00,77.5,71.9,29.83,SSW,192,0.0,3.0,83,0.00,,,0.00,Weather View 32 v70,2013-07-24 12:15:00,
2013-07-24 07:22:00,77.7,72.1,29.83,SSW,198,0.0,3.0,83,0.00,,,0.00,Weather View 32 v70,2013-07-24 12:22:00,
2013-07-24 07:30:00,78.1,72.1,29.83,South,179,0.0,3.0,82,0.00,,,0.00,Weather View 32 v70,2013-07-24 12:30:00,
2013-07-24 07:35:00,78.3,72.3,29.83,SSE,158,0.0,3.0,82,0.00,,,0.00,Weather View 32 v70,2013-07-24 12:35:00,
2013-07-24 07:40:00,78.3,71.9,29.83,South,186,0.0,5.0,81,0.00,,,0.00,Weather View 32 v70,2013-07-24 12:40:00,
2013-07-24 07:45:00,78.6,72.3,29.83,SW,235,0.0,5.0,81,0.00,,,0.00,Weather View 32 v70,2013-07-24 12:45:00,
2013-07-24 07:55:00,78.8,72.1,29.83,SW,225,0.0,5.0,80,0.00,,,0.00,Weather View 32 v70,2013-07-24 12:55:00,
2013-07-24 08:00:00,79.0,71.9,29.83,South,184,3.0,5.0,79,0.00,,,0.00,Weather View 32 v70,2013-07-24 13:00:00,
2013-07-24 08:10:00,79.2,72.1,29.83,SSW,197,0.0,5.0,79,0.00,,,0.00,Weather View 32 v70,2013-07-24 13:10:00,
2013-07-24 08:20:00,79.3,71.9,29.83,ENE,61,0.0,6.0,78,0.00,,,0.00,Weather View 32 v70,2013-07-24 13:20:00,
2013-07-24 08:25:00,79.3,71.9,29.83,SSW,209,0.0,6.0,78,0.00,,,0.00,Weather View 32 v70,2013-07-24 13:25:00,
2013-07-24 08:35:00,79.5,71.6,29.83,SSW,205,4.0,6.0,77,0.00,,,0.00,Weather View 32 v70,2013-07-24 13:35:00,
2013-07-24 08:45:00,79.5,71.3,29.83,SW,235,3.0,6.0,76,0.00,,,0.00,Weather View 32 v70,2013-07-24 13:45:00,
2013-07-24 08:50:00,79.3,71.1,29.83,West,280,3.0,6.0,76,0.00,,,0.00,Weather View 32 v70,2013-07-24 13:50:00,
2013-07-24 08:55:00,79.5,70.9,29.83,SSE,165,0.0,6.0,75,0.00,,,0.00,Weather View 32 v70,2013-07-24 13:55:00,
2013-07-24 09:00:00,79.5,71.3,29.83,SSE,162,3.0,6.0,76,0.00,,,0.00,Weather View 32 v70,2013-07-24 14:00:00,
2013-07-24 09:10:00,79.7,71.4,29.83,WNW,297,0.0,6.0,76,0.00,,,0.00,Weather View 32 v70,2013-07-24 14:10:00,
2013-07-24 09:15:00,79.9,71.2,29.83,WNW,298,0.0,6.0,75,0.00,,,0.00,Weather View 32 v70,2013-07-24 14:15:00,
2013-07-24 09:24:00,80.1,71.4,29.83,SSW,207,4.0,6.0,75,0.00,,,0.00,Weather View 32 v70,2013-07-24 14:24:00,
2013-07-24 09:31:00,80.8,70.9,29.83,West,272,2.0,6.0,72,0.00,,,0.00,Weather View 32 v70,2013-07-24 14:31:00,
2013-07-24 09:41:00,81.1,70.4,29.83,NW,309,0.0,6.0,70,0.00,,,0.00,Weather View 32 v70,2013-07-24 14:41:00,
2013-07-24 09:46:00,81.5,70.3,29.83,WSW,256,0.0,6.0,69,0.00,,,0.00,Weather View 32 v70,2013-07-24 14:46:00,
2013-07-24 09:51:00,81.5,69.9,29.83,WNW,283,0.0,6.0,68,0.00,,,0.00,Weather View 32 v70,2013-07-24 14:51:00,
2013-07-24 10:00:00,81.3,69.7,29.83,West,259,0.0,6.0,68,0.00,,,0.00,Weather View 32 v70,2013-07-24 15:00:00,
2013-07-24 10:06:00,81.1,69.5,29.83,WNW,295,3.0,6.0,68,0.00,,,0.00,Weather View 32 v70,2013-07-24 15:06:00,
2013-07-24 10:11:00,81.1,69.5,29.83,SSE,155,0.0,6.0,68,0.00,,,0.00,Weather View 32 v70,2013-07-24 15:11:00,
2013-07-24 10:20:00,81.1,69.5,29.83,NNW,327,3.0,6.0,68,0.00,,,0.00,Weather View 32 v70,2013-07-24 15:20:00,
2013-07-24 10:26:00,81.3,69.7,29.83,NW,307,0.0,6.0,68,0.00,,,0.00,Weather View 32 v70,2013-07-24 15:26:00,
2013-07-24 10:31:00,81.3,69.7,29.83,South,175,3.0,6.0,68,0.00,,,0.00,Weather View 32 v70,2013-07-24 15:31:00,
2013-07-24 10:41:00,81.7,70.0,29.83,SSW,207,0.0,6.0,68,0.00,,,0.00,Weather View 32 v70,2013-07-24 15:41:00,
2013-07-24 10:46:00,81.7,69.6,29.83,South,187,0.0,6.0,67,0.00,,,0.00,Weather View 32 v70,2013-07-24 15:46:00,
2013-07-24 10:51:00,81.7,69.2,29.83,WNW,302,3.0,6.0,66,0.00,,,0.00,Weather View 32 v70,2013-07-24 15:51:00,
2013-07-24 10:56:00,81.9,69.3,29.83,West,278,0.0,6.0,66,0.00,,,0.00,Weather View 32 v70,2013-07-24 15:56:00,
2013-07-24 11:01:00,82.4,69.8,29.83,South,190,3.0,6.0,66,0.00,,,0.00,Weather View 32 v70,2013-07-24 16:01:00,
2013-07-24 11:10:00,82.2,69.2,29.83,WNW,299,0.0,6.0,65,0.00,,,0.00,Weather View 32 v70,2013-07-24 16:10:00,
2013-07-24 11:15:00,82.2,69.2,29.83,WNW,291,3.0,6.0,65,0.00,,,0.00,Weather View 32 v70,2013-07-24 16:15:00,
2013-07-24 11:21:00,82.2,68.8,29.83,WNW,282,3.0,6.0,64,0.00,,,0.00,Weather View 32 v70,2013-07-24 16:21:00,
2013-07-24 11:26:00,82.6,68.7,29.83,South,178,4.0,6.0,63,0.00,,,0.00,Weather View 32 v70,2013-07-24 16:26:00,
2013-07-24 11:36:00,83.1,68.2,29.83,South,172,2.0,5.0,61,0.00,,,0.00,Weather View 32 v70,2013-07-24 16:36:00,
2013-07-24 11:41:00,83.3,69.3,29.83,South,186,0.0,5.0,63,0.00,,,0.00,Weather View 32 v70,2013-07-24 16:41:00,
2013-07-24 11:51:00,83.7,67.8,29.83,SSW,213,3.0,5.0,59,0.00,,,0.00,Weather View 32 v70,2013-07-24 16:51:00,
2013-07-24 12:01:00,84.4,67.9,29.83,SW,227,3.0,6.0,58,0.00,,,0.00,Weather View 32 v70,2013-07-24 17:01:00,
2013-07-24 12:11:00,84.4,67.4,29.83,WSW,255,0.0,6.0,57,0.00,,,0.00,Weather View 32 v70,2013-07-24 17:11:00,
2013-07-24 12:16:00,84.2,66.7,29.83,WNW,301,4.0,6.0,56,0.00,,,0.00,Weather View 32 v70,2013-07-24 17:16:00,
2013-07-24 12:21:00,84.0,67.6,29.83,SW,236,0.0,6.0,58,0.00,,,0.00,Weather View 32 v70,2013-07-24 17:21:00,
2013-07-24 12:31:00,84.7,67.8,29.83,SSW,197,4.0,6.0,57,0.00,,,0.00,Weather View 32 v70,2013-07-24 17:31:00,
2013-07-24 12:41:00,85.6,65.9,29.83,South,184,3.0,6.0,52,0.00,,,0.00,Weather View 32 v70,2013-07-24 17:41:00,
2013-07-24 12:46:00,86.0,66.3,29.83,NW,311,0.0,8.0,52,0.00,,,0.00,Weather View 32 v70,2013-07-24 17:46:00,
2013-07-24 12:51:00,86.5,67.3,29.83,SSW,208,3.0,8.0,53,0.00,,,0.00,Weather View 32 v70,2013-07-24 17:51:00,
2013-07-24 13:01:00,86.9,65.4,29.83,NNW,329,6.0,8.0,49,0.00,,,0.00,Weather View 32 v70,2013-07-24 18:01:00,
2013-07-24 13:11:00,86.7,65.2,29.83,WNW,299,3.0,8.0,49,0.00,,,0.00,Weather View 32 v70,2013-07-24 18:11:00,
2013-07-24 13:16:00,86.9,65.4,29.83,SSW,213,3.0,8.0,49,0.00,,,0.00,Weather View 32 v70,2013-07-24 18:16:00,
2013-07-24 13:25:00,87.3,64.5,29.83,WNW,294,3.0,8.0,47,0.00,,,0.00,Weather View 32 v70,2013-07-24 18:25:00,
2013-07-24 13:30:00,87.6,64.8,29.83,South,170,3.0,8.0,47,0.00,,,0.00,Weather View 32 v70,2013-07-24 18:30:00,
2013-07-24 13:36:00,87.6,64.8,29.83,WNW,296,6.0,8.0,47,0.00,,,0.00,Weather View 32 v70,2013-07-24 18:36:00,
2013-07-24 13:45:00,87.8,63.7,29.83,SSW,209,0.0,6.0,45,0.00,,,0.00,Weather View 32 v70,2013-07-24 18:45:00,
2013-07-24 13:50:00,87.8,63.1,29.83,SSW,213,2.0,6.0,44,0.00,,,0.00,Weather View 32 v70,2013-07-24 18:50:00,
2013-07-24 13:56:00,87.8,63.1,29.80,WNW,286,0.0,6.0,44,0.00,,,0.00,Weather View 32 v70,2013-07-24 18:56:00,
2013-07-24 14:01:00,88.0,63.2,29.80,WNW,299,0.0,6.0,44,0.00,,,0.00,Weather View 32 v70,2013-07-24 19:01:00,
2013-07-24 14:06:00,87.8,61.8,29.80,SSW,204,3.0,6.0,42,0.00,,,0.00,Weather View 32 v70,2013-07-24 19:06:00,
2013-07-24 14:11:00,88.0,62.6,29.80,NW,308,4.0,6.0,43,0.00,,,0.00,Weather View 32 v70,2013-07-24 19:11:00,
2013-07-24 14:16:00,87.8,62.4,29.80,SSW,194,2.0,6.0,43,0.00,,,0.00,Weather View 32 v70,2013-07-24 19:16:00,
2013-07-24 14:26:00,87.8,64.4,29.80,South,170,4.0,6.0,46,0.00,,,0.00,Weather View 32 v70,2013-07-24 19:26:00,
2013-07-24 14:36:00,87.8,66.8,29.80,SSE,167,3.0,6.0,50,0.00,,,0.00,Weather View 32 v70,2013-07-24 19:36:00,
2013-07-24 14:46:00,88.3,66.1,29.77,South,176,4.0,6.0,48,0.00,,,0.00,Weather View 32 v70,2013-07-24 19:46:00,
2013-07-24 14:56:00,88.3,67.3,29.77,South,175,3.0,6.0,50,0.00,,,0.00,Weather View 32 v70,2013-07-24 19:56:00,
2013-07-24 15:01:00,88.2,66.5,29.77,South,185,3.0,6.0,49,0.00,,,0.00,Weather View 32 v70,2013-07-24 20:01:00,
2013-07-24 15:05:00,87.8,66.8,29.77,SSW,210,0.0,6.0,50,0.00,,,0.00,Weather View 32 v70,2013-07-24 20:05:00,
2013-07-24 15:11:00,87.8,68.5,29.77,South,178,4.0,6.0,53,0.00,,,0.00,Weather View 32 v70,2013-07-24 20:11:00,
2013-07-24 15:20:00,88.3,68.4,29.77,SSE,165,0.0,6.0,52,0.00,,,0.00,Weather View 32 v70,2013-07-24 20:20:00,
2013-07-24 15:26:00,88.5,68.0,29.77,SSW,199,3.0,6.0,51,0.00,,,0.00,Weather View 32 v70,2013-07-24 20:26:00,
2013-07-24 15:31:00,88.7,68.2,29.77,SSE,165,0.0,6.0,51,0.00,,,0.00,Weather View 32 v70,2013-07-24 20:31:00,
2013-07-24 15:41:00,88.7,67.0,29.74,SSW,197,0.0,6.0,49,0.00,,,0.00,Weather View 32 v70,2013-07-24 20:41:00,
2013-07-24 15:50:00,88.7,66.4,29.74,SSE,157,0.0,6.0,48,0.00,,,0.00,Weather View 32 v70,2013-07-24 20:50:00,
2013-07-24 15:55:00,88.3,65.5,29.74,WSW,240,0.0,6.0,47,0.00,,,0.00,Weather View 32 v70,2013-07-24 20:55:00,
2013-07-24 16:00:00,88.0,66.3,29.74,WSW,240,0.0,6.0,49,0.00,,,0.00,Weather View 32 v70,2013-07-24 21:00:00,
2013-07-24 16:06:00,88.2,67.1,29.74,WSW,240,0.0,6.0,50,0.00,,,0.00,Weather View 32 v70,2013-07-24 21:06:00,
2013-07-24 16:15:00,88.9,60.6,29.74,NW,310,0.0,6.0,39,0.00,,,0.00,Weather View 32 v70,2013-07-24 21:15:00,
2013-07-24 16:20:00,88.9,60.6,29.74,NW,320,2.0,6.0,39,0.00,,,0.00,Weather View 32 v70,2013-07-24 21:20:00,
2013-07-24 16:26:00,89.1,58.5,29.74,NW,314,0.0,6.0,36,0.00,,,0.00,Weather View 32 v70,2013-07-24 21:26:00,
2013-07-24 16:36:00,89.2,60.2,29.74,WNW,295,4.0,8.0,38,0.00,,,0.00,Weather View 32 v70,2013-07-24 21:36:00,
2013-07-24 16:41:00,89.2,60.2,29.74,NW,307,2.0,9.0,38,0.00,,,0.00,Weather View 32 v70,2013-07-24 21:41:00,
2013-07-24 16:50:00,89.2,60.9,29.74,South,169,3.0,9.0,39,0.00,,,0.00,Weather View 32 v70,2013-07-24 21:50:00,
2013-07-24 16:55:00,89.2,60.2,29.74,South,177,4.0,9.0,38,0.00,,,0.00,Weather View 32 v70,2013-07-24 21:55:00,
2013-07-24 17:00:00,89.2,60.2,29.74,SSW,204,2.0,9.0,38,0.00,,,0.00,Weather View 32 v70,2013-07-24 22:00:00,
2013-07-24 17:11:00,89.2,60.2,29.74,WNW,299,3.0,9.0,38,0.00,,,0.00,Weather View 32 v70,2013-07-24 22:11:00,
2013-07-24 17:20:00,89.1,60.8,29.74,SW,223,3.0,9.0,39,0.00,,,0.00,Weather View 32 v70,2013-07-24 22:20:00,
2013-07-24 17:26:00,89.2,60.9,29.74,South,191,0.0,9.0,39,0.00,,,0.00,Weather View 32 v70,2013-07-24 22:26:00,
2013-07-24 17:35:00,89.1,59.3,29.74,NW,318,2.0,9.0,37,0.00,,,0.00,Weather View 32 v70,2013-07-24 22:35:00,
2013-07-24 17:46:00,89.1,60.0,29.74,SSW,200,0.0,6.0,38,0.00,,,0.00,Weather View 32 v70,2013-07-24 22:46:00,
2013-07-24 17:55:00,88.7,60.5,29.74,SSW,210,0.0,6.0,39,0.00,,,0.00,Weather View 32 v70,2013-07-24 22:55:00,
2013-07-24 18:01:00,88.2,60.7,29.74,SSW,210,0.0,6.0,40,0.00,,,0.00,Weather View 32 v70,2013-07-24 23:01:00,
2013-07-24 18:10:00,87.4,61.4,29.74,SSW,210,0.0,6.0,42,0.00,,,0.00,Weather View 32 v70,2013-07-24 23:10:00,
2013-07-24 18:20:00,87.1,61.1,29.74,WNW,298,0.0,6.0,42,0.00,,,0.00,Weather View 32 v70,2013-07-24 23:20:00,
2013-07-24 18:25:00,87.1,61.1,29.74,WNW,298,0.0,6.0,42,0.00,,,0.00,Weather View 32 v70,2013-07-24 23:25:00,
2013-07-24 18:30:00,86.9,61.0,29.74,WNW,298,0.0,6.0,42,0.00,,,0.00,Weather View 32 v70,2013-07-24 23:30:00,
2013-07-24 18:35:00,86.7,61.5,29.74,WNW,298,0.0,6.0,43,0.00,,,0.00,Weather View 32 v70,2013-07-24 23:35:00,
2013-07-24 18:46:00,86.5,62.0,29.74,WNW,298,0.0,4.0,44,0.00,,,0.00,Weather View 32 v70,2013-07-24 23:46:00,
2013-07-24 18:56:00,86.0,62.1,29.77,WNW,298,0.0,4.0,45,0.00,,,0.00,Weather View 32 v70,2013-07-24 23:56:00,
2013-07-24 19:00:00,85.8,62.6,29.77,WNW,298,0.0,4.0,46,0.00,,,0.00,Weather View 32 v70,2013-07-25 00:00:00,
2013-07-24 19:05:00,85.5,62.9,29.77,WNW,298,0.0,4.0,47,0.00,,,0.00,Weather View 32 v70,2013-07-25 00:05:00,
2013-07-24 19:11:00,85.3,63.3,29.77,WNW,298,0.0,4.0,48,0.00,,,0.00,Weather View 32 v70,2013-07-25 00:11:00,
2013-07-24 19:16:00,85.1,63.7,29.77,WNW,298,0.0,4.0,49,0.00,,,0.00,Weather View 32 v70,2013-07-25 00:16:00,
2013-07-24 19:25:00,84.6,64.4,29.77,WNW,298,0.0,4.0,51,0.00,,,0.00,Weather View 32 v70,2013-07-25 00:25:00,
2013-07-24 19:31:00,84.4,64.8,29.77,WNW,298,0.0,3.0,52,0.00,,,0.00,Weather View 32 v70,2013-07-25 00:31:00,
2013-07-24 19:36:00,84.2,65.7,29.77,WNW,298,0.0,2.0,54,0.00,,,0.00,Weather View 32 v70,2013-07-25 00:36:00,
2013-07-24 19:41:00,83.8,66.4,29.77,WNW,298,0.0,2.0,56,0.00,,,0.00,Weather View 32 v70,2013-07-25 00:41:00,
2013-07-24 19:46:00,83.7,67.3,29.77,WNW,298,0.0,2.0,58,0.00,,,0.00,Weather View 32 v70,2013-07-25 00:46:00,
2013-07-24 19:51:00,83.5,67.6,29.77,WNW,298,0.0,2.0,59,0.00,,,0.00,Weather View 32 v70,2013-07-25 00:51:00,
2013-07-24 19:56:00,83.3,67.9,29.77,WNW,298,0.0,0.0,60,0.00,,,0.00,Weather View 32 v70,2013-07-25 00:56:00,
2013-07-24 20:06:00,82.9,68.5,29.77,WNW,298,0.0,0.0,62,0.00,,,0.00,Weather View 32 v70,2013-07-25 01:06:00,
2013-07-24 20:11:00,82.8,68.8,29.77,WNW,298,0.0,0.0,63,0.00,,,0.00,Weather View 32 v70,2013-07-25 01:11:00,
2013-07-24 20:20:00,82.4,68.9,29.77,WNW,298,0.0,0.0,64,0.00,,,0.00,Weather View 32 v70,2013-07-25 01:20:00,
2013-07-24 20:26:00,82.4,69.4,29.77,WNW,298,0.0,0.0,65,0.00,,,0.00,Weather View 32 v70,2013-07-25 01:26:00,
2013-07-24 20:31:00,82.2,69.7,29.77,WNW,298,0.0,0.0,66,0.00,,,0.00,Weather View 32 v70,2013-07-25 01:31:00,
2013-07-24 20:41:00,82.0,69.9,29.77,WNW,298,0.0,0.0,67,0.00,,,0.00,Weather View 32 v70,2013-07-25 01:41:00,
2013-07-24 20:50:00,81.9,69.8,29.77,WNW,298,0.0,0.0,67,0.00,,,0.00,Weather View 32 v70,2013-07-25 01:50:00,
2013-07-24 20:56:00,81.9,69.8,29.77,WNW,298,0.0,0.0,67,0.00,,,0.00,Weather View 32 v70,2013-07-25 01:56:00,
2013-07-24 21:06:00,81.7,70.0,29.77,WNW,298,0.0,0.0,68,0.00,,,0.00,Weather View 32 v70,2013-07-25 02:06:00,
2013-07-24 21:16:00,81.5,69.9,29.77,WNW,298,0.0,0.0,68,0.00,,,0.00,Weather View 32 v70,2013-07-25 02:16:00,
2013-07-24 21:26:00,81.5,70.3,29.77,WNW,298,0.0,0.0,69,0.00,,,0.00,Weather View 32 v70,2013-07-25 02:26:00,
2013-07-24 21:33:00,81.5,70.3,29.77,WNW,298,0.0,0.0,69,0.00,,,0.00,Weather View 32 v70,2013-07-25 02:33:00,
2013-07-24 21:36:00,81.3,70.1,29.77,WNW,298,0.0,0.0,69,0.00,,,0.00,Weather View 32 v70,2013-07-25 02:36:00,
2013-07-24 21:46:00,81.1,70.0,29.77,WNW,298,0.0,0.0,69,0.00,,,0.00,Weather View 32 v70,2013-07-25 02:46:00,
2013-07-24 21:56:00,81.1,70.4,29.77,WNW,298,0.0,0.0,70,0.00,,,0.00,Weather View 32 v70,2013-07-25 02:56:00,
2013-07-24 22:01:00,81.0,70.6,29.77,WNW,298,0.0,0.0,71,0.00,,,0.00,Weather View 32 v70,2013-07-25 03:01:00,
2013-07-24 22:10:00,81.0,71.0,29.77,WNW,298,0.0,0.0,72,0.00,,,0.00,Weather View 32 v70,2013-07-25 03:10:00,
2013-07-24 22:21:00,80.6,70.7,29.77,WNW,298,0.0,0.0,72,0.00,,,0.00,Weather View 32 v70,2013-07-25 03:21:00,
2013-07-24 22:31:00,80.4,70.9,29.77,WNW,298,0.0,0.0,73,0.00,,,0.00,Weather View 32 v70,2013-07-25 03:31:00,
2013-07-24 22:36:00,80.2,70.4,29.77,WNW,298,0.0,0.0,72,0.00,,,0.00,Weather View 32 v70,2013-07-25 03:36:00,
2013-07-24 22:41:00,80.2,69.9,29.80,WNW,298,0.0,0.0,71,0.00,,,0.00,Weather View 32 v70,2013-07-25 03:41:00,
2013-07-24 22:51:00,80.1,68.9,29.80,WNW,298,0.0,0.0,69,0.00,,,0.00,Weather View 32 v70,2013-07-25 03:51:00,
2013-07-24 23:00:00,79.9,68.3,29.77,WNW,298,0.0,0.0,68,0.00,,,0.00,Weather View 32 v70,2013-07-25 04:00:00,
2013-07-24 23:05:00,79.9,68.3,29.77,WNW,298,0.0,0.0,68,0.00,,,0.00,Weather View 32 v70,2013-07-25 04:05:00,
2013-07-24 23:11:00,79.7,68.2,29.80,WNW,298,0.0,0.0,68,0.00,,,0.00,Weather View 32 v70,2013-07-25 04:11:00,
2013-07-24 23:15:00,79.5,68.0,29.80,WNW,298,0.0,0.0,68,0.00,,,0.00,Weather View 32 v70,2013-07-25 04:15:00,
2013-07-24 23:21:00,79.5,68.0,29.80,WNW,298,0.0,0.0,68,0.00,,,0.00,Weather View 32 v70,2013-07-25 04:21:00,
2013-07-24 23:26:00,79.5,68.0,29.80,WNW,298,0.0,0.0,68,0.00,,,0.00,Weather View 32 v70,2013-07-25 04:26:00,
2013-07-24 23:31:00,79.3,67.8,29.80,WNW,298,0.0,0.0,68,0.00,,,0.00,Weather View 32 v70,2013-07-25 04:31:00,
2013-07-24 23:41:00,79.2,68.1,29.77,WNW,298,0.0,0.0,69,0.00,,,0.00,Weather View 32 v70,2013-07-25 04:41:00,
2013-07-24 23:50:00,78.8,67.7,29.77,NW,309,0.0,10.0,69,0.00,,,0.00,Weather View 32 v70,2013-07-25 04:50:00,
2013-07-24 23:56:00,78.6,67.6,29.77,WNW,285,0.0,10.0,69,0.00,,,0.00,Weather View 32 v70,2013-07-25 04:56:00,